| time (UTC) | temp F | wind direction | speed MPH | gust MPH | rain 1hr in | rain 24hr in | rain mn in | humidity % | barometer mb |
| 20260903190739 | 87 | 235 | 2.0 | 3.0 | 0.00 | 0.00 | 0.00 | 60 | 1021.1 |
| 20260903190238 | 86 | 271 | 1.0 | 4.0 | 0.00 | 0.00 | 0.00 | 63 | 1021.2 |
| 20260903185733 | 86 | 185 | 0.0 | 2.0 | 0.00 | 0.00 | 0.00 | 59 | 1021.4 |
| 20260903185228 | 87 | 349 | 1.0 | 3.0 | 0.00 | 0.00 | 0.00 | 60 | 1021.6 |
| 20260903184725 | 86 | 246 | 1.0 | 6.0 | 0.00 | 0.00 | 0.00 | 62 | 1021.7 |
| 20260903184220 | 87 | 201 | 3.0 | 6.0 | 0.00 | 0.00 | 0.00 | 57 | 1021.6 |
| 20260903183721 | 86 | 310 | 3.0 | 4.0 | 0.00 | 0.00 | 0.00 | 61 | 1021.4 |
| 20260903183215 | 86 | 256 | 1.0 | 3.0 | 0.00 | 0.00 | 0.00 | 62 | 1021.7 |
| 20260903182713 | 87 | 278 | 1.0 | 4.0 | 0.00 | 0.00 | 0.00 | 66 | 1021.6 |
| 20260903182209 | 85 | 233 | 0.0 | 6.0 | 0.00 | 0.00 | 0.00 | 67 | 1021.7 |
| 20260903181707 | 85 | 248 | 3.0 | 7.0 | 0.00 | 0.00 | 0.00 | 66 | 1021.7 |
| 20260903181202 | 85 | 242 | 2.0 | 2.0 | 0.00 | 0.00 | 0.00 | 65 | 1021.7 |
| 20260903180658 | 86 | 0 | 3.0 | 3.0 | 0.00 | 0.00 | 0.00 | 65 | 1021.7 |
| 20260903180152 | 86 | 273 | 2.0 | 4.0 | 0.00 | 0.00 | 0.00 | 64 | 1021.7 |
| 20260903175651 | 86 | 312 | 0.0 | 3.0 | 0.00 | 0.00 | 0.00 | 64 | 1021.7 |
| 20260903175151 | 87 | 301 | 2.0 | 2.0 | 0.00 | 0.00 | 0.00 | 60 | 1021.9 |
| 20260903174645 | 87 | 319 | 3.0 | 5.0 | 0.00 | 0.00 | 0.00 | 59 | 1022.1 |
| 20260903174141 | 87 | 290 | 2.0 | 5.0 | 0.00 | 0.00 | 0.00 | 61 | 1022.2 |
| 20260903173635 | 87 | 331 | 2.0 | 5.0 | 0.00 | 0.00 | 0.00 | 63 | 1022.0 |
| 20260903173132 | 87 | 305 | 0.0 | 4.0 | 0.00 | 0.00 | 0.00 | 61 | 1021.8 |
| 20260903172631 | 87 | 287 | 4.0 | 5.0 | 0.00 | 0.00 | 0.00 | 65 | 1021.9 |
| 20260903172127 | 85 | 295 | 1.0 | 4.0 | 0.00 | 0.00 | 0.00 | 68 | 1022.2 |
| 20260903171626 | 84 | 72 | 3.0 | 5.0 | 0.00 | 0.00 | 0.00 | 66 | 1022.0 |
| 20260903171122 | 83 | 79 | 5.0 | 5.0 | 0.00 | 0.00 | 0.00 | 69 | 1022.0 |
| 20260903170621 | 82 | 21 | 4.0 | 6.0 | 0.00 | 0.00 | 0.00 | 69 | 1022.5 |
| 20260903170117 | 83 | 25 | 3.0 | 8.0 | 0.00 | 0.00 | 0.00 | 69 | 1022.5 |
| 20260903165614 | 83 | 21 | 6.0 | 7.0 | 0.00 | 0.00 | 0.00 | 69 | 1022.5 |
| 20260903165110 | 84 | 60 | 4.0 | 8.0 | 0.00 | 0.00 | 0.00 | 68 | 1022.3 |
| 20260903164604 | 85 | 340 | 2.0 | 6.0 | 0.00 | 0.00 | 0.00 | 65 | 1022.2 |
| 20260903164100 | 85 | 7 | 3.0 | 5.0 | 0.00 | 0.00 | 0.00 | 64 | 1022.6 |
| 20260903163555 | 85 | 2 | 5.0 | 10.0 | 0.00 | 0.00 | 0.00 | 63 | 1022.5 |
| 20260903163051 | 86 | 0 | 4.0 | 7.0 | 0.00 | 0.00 | 0.00 | 62 | 1022.3 |
| 20260903162547 | 87 | 61 | 4.0 | 8.0 | 0.00 | 0.00 | 0.00 | 58 | 1022.3 |
| 20260903162042 | 87 | 336 | 3.0 | 6.0 | 0.00 | 0.00 | 0.00 | 59 | 1022.3 |
| 20260903161537 | 87 | 336 | 0.0 | 4.0 | 0.00 | 0.00 | 0.00 | 60 | 1022.6 |
| 20260903161028 | 87 | 240 | 3.0 | 6.0 | 0.00 | 0.00 | 0.00 | 59 | 1022.3 |
| 20260903160527 | 87 | 30 | 1.0 | 5.0 | 0.00 | 0.00 | 0.00 | 60 | 1022.5 |
| 20260903160021 | 88 | 230 | 10.0 | 11.0 | 0.00 | 0.00 | 0.00 | 61 | 1022.3 |
| 20260903155515 | 86 | 313 | 2.0 | 3.0 | 0.00 | 0.00 | 0.00 | 63 | 1022.8 |
| 20260903155010 | 85 | 277 | 1.0 | 3.0 | 0.00 | 0.00 | 0.00 | 64 | 1022.3 |
| 20260903154507 | 85 | 284 | 2.0 | 3.0 | 0.00 | 0.00 | 0.00 | 66 | 1022.7 |
| 20260903154003 | 84 | 282 | 3.0 | 5.0 | 0.00 | 0.00 | 0.00 | 68 | 1022.8 |
| 20260903153457 | 85 | 268 | 2.0 | 5.0 | 0.00 | 0.00 | 0.00 | 66 | 1022.8 |
| 20260903152953 | 83 | 317 | 1.0 | 2.0 | 0.00 | 0.00 | 0.00 | 71 | 1022.8 |
| 20260903152449 | 83 | 154 | 0.0 | 2.0 | 0.00 | 0.00 | 0.00 | 70 | 1022.8 |
| 20260903151944 | 82 | 269 | 0.0 | 0.0 | 0.00 | 0.00 | 0.00 | 75 | 1022.8 |
| 20260903151438 | 80 | 249 | 0.0 | 2.0 | 0.00 | 0.00 | 0.00 | 82 | 1022.8 |
| 20260903150933 | 79 | 25 | 0.0 | 3.0 | 0.00 | 0.00 | 0.00 | 80 | 1022.9 |
| 20260903150422 | 79 | 67 | 1.0 | 2.0 | 0.00 | 0.00 | 0.00 | 78 | 1023.1 |
| 20260903145917 | 78 | 336 | 0.0 | 1.0 | 0.00 | 0.00 | 0.00 | 79 | 1022.8 |
| 20260903145412 | 76 | 62 | 0.0 | 0.0 | 0.00 | 0.00 | 0.00 | 81 | 1023.0 |
| 20260903144912 | 76 | 341 | 0.0 | 0.0 | 0.00 | 0.00 | 0.00 | 84 | 1023.3 |
| 20260903144401 | 76 | 339 | 1.0 | 3.0 | 0.00 | 0.00 | 0.00 | 84 | 1023.1 |
| 20260903143856 | 75 | 51 | 1.0 | 3.0 | 0.00 | 0.00 | 0.00 | 85 | 1023.3 |
| 20260903143353 | 73 | 78 | 1.0 | 2.0 | 0.00 | 0.00 | 0.00 | 87 | 1023.0 |
| 20260903142848 | 74 | 55 | 1.0 | 1.0 | 0.00 | 0.00 | 0.00 | 87 | 1022.8 |
| 20260903142344 | 73 | 73 | 0.0 | 1.0 | 0.00 | 0.00 | 0.00 | 88 | 1023.0 |
| 20260903141840 | 73 | 54 | 2.0 | 2.0 | 0.00 | 0.00 | 0.00 | 88 | 1023.1 |
| 20260903141335 | 72 | 15 | 0.0 | 1.0 | 0.00 | 0.00 | 0.00 | 89 | 1023.0 |
| 20260903140830 | 72 | 43 | 0.0 | 1.0 | 0.00 | 0.00 | 0.00 | 90 | 1022.8 |
| 20260903140325 | 72 | 340 | 0.0 | 1.0 | 0.00 | 0.00 | 0.00 | 92 | 1023.0 |
| 20260903135821 | 71 | 48 | 0.0 | 1.0 | 0.00 | 0.00 | 0.00 | 94 | 1023.1 |
| 20260903135317 | 71 | 56 | 1.0 | 1.0 | 0.00 | 0.00 | 0.00 | 97 | 1023.1 |
| 20260903134815 | 70 | 63 | 0.0 | 2.0 | 0.00 | 0.00 | 0.00 | 97 | 1022.9 |
| 20260903134311 | 70 | 6 | 1.0 | 2.0 | 0.00 | 0.00 | 0.00 | 97 | 1023.0 |
| 20260903133808 | 70 | 21 | 0.0 | 2.0 | 0.00 | 0.00 | 0.00 | 97 | 1023.1 |
| 20260903133304 | 70 | 29 | 1.0 | 2.0 | 0.00 | 0.00 | 0.00 | 97 | 1023.2 |
| 20260903132758 | 69 | 5 | 0.0 | 0.0 | 0.00 | 0.00 | 0.00 | 97 | 1023.1 |
| 20260903132254 | 69 | 279 | 0.0 | 2.0 | 0.00 | 0.00 | 0.00 | 97 | 1023.2 |
| 20260903131749 | 68 | 304 | 0.0 | 2.0 | 0.00 | 0.00 | 0.00 | 97 | 1023.2 |
| 20260903131248 | 68 | 269 | 0.0 | 1.0 | 0.00 | 0.00 | 0.00 | 97 | 1023.5 |
| 20260903130743 | 68 | 102 | 0.0 | 0.0 | 0.00 | 0.00 | 0.00 | 97 | 1023.5 |
| 20260903130238 | 68 | 217 | 0.0 | 0.0 | 0.00 | 0.00 | 0.00 | 97 | 1023.5 |
| 20260903125736 | 68 | 235 | 0.0 | 1.0 | 0.00 | 0.00 | 0.00 | 97 | 1023.7 |
| 20260903125232 | 68 | 243 | 0.0 | 1.0 | 0.00 | 0.00 | 0.00 | 97 | 1023.6 |
| 20260903124731 | 68 | 309 | 0.0 | 2.0 | 0.00 | 0.00 | 0.00 | 97 | 1023.7 |
| 20260903124226 | 68 | 309 | 0.0 | 0.0 | 0.00 | 0.00 | 0.00 | 97 | 1023.7 |
| 20260903123725 | 68 | 309 | 0.0 | 0.0 | 0.00 | 0.00 | 0.00 | 97 | 1023.5 |
| 20260903123224 | 68 | 269 | 0.0 | 0.0 | 0.00 | 0.00 | 0.00 | 97 | 1023.7 |
| 20260903122723 | 67 | 269 | 0.0 | 0.0 | 0.00 | 0.00 | 0.00 | 97 | 1023.7 |
| 20260903122218 | 67 | 235 | 0.0 | 0.0 | 0.00 | 0.00 | 0.00 | 97 | 1023.5 |
| 20260903121716 | 67 | 220 | 0.0 | 1.0 | 0.00 | 0.00 | 0.00 | 97 | 1023.7 |
| 20260903121213 | 67 | 326 | 0.0 | 0.0 | 0.00 | 0.00 | 0.00 | 97 | 1023.6 |
| 20260903120712 | 67 | 309 | 0.0 | 0.0 | 0.00 | 0.00 | 0.00 | 97 | 1023.8 |
| 20260903120207 | 67 | 302 | 0.0 | 1.0 | 0.00 | 0.00 | 0.00 | 97 | 1023.7 |
| 20260903115705 | 67 | 326 | 0.0 | 0.0 | 0.00 | 0.00 | 0.00 | 97 | 1023.6 |
| 20260903115201 | 67 | 309 | 0.0 | 0.0 | 0.00 | 0.00 | 0.00 | 97 | 1023.8 |
| 20260903114655 | 66 | 269 | 0.0 | 0.0 | 0.00 | 0.00 | 0.00 | 97 | 1023.5 |
| 20260903114150 | 67 | 269 | 0.0 | 1.0 | 0.00 | 0.00 | 0.00 | 97 | 1023.6 |
| 20260903113646 | 66 | 304 | 0.0 | 1.0 | 0.00 | 0.00 | 0.00 | 97 | 1023.5 |
| 20260903113142 | 66 | 318 | 0.0 | 1.0 | 0.00 | 0.00 | 0.00 | 97 | 1023.6 |
| 20260903112637 | 66 | 50 | 0.0 | 0.0 | 0.00 | 0.00 | 0.00 | 97 | 1023.5 |
| 20260903112132 | 66 | 345 | 0.0 | 1.0 | 0.00 | 0.00 | 0.00 | 97 | 1023.5 |
| 20260903111631 | 66 | 306 | 0.0 | 0.0 | 0.00 | 0.00 | 0.00 | 97 | 1023.5 |
| 20260903111127 | 66 | 230 | 0.0 | 0.0 | 0.00 | 0.00 | 0.00 | 97 | 1023.3 |
| 20260903110622 | 66 | 230 | 0.0 | 0.0 | 0.00 | 0.00 | 0.00 | 97 | 1023.1 |
| 20260903110117 | 67 | 293 | 0.0 | 1.0 | 0.00 | 0.00 | 0.00 | 97 | 1023.1 |
| 20260903105607 | 67 | 336 | 0.0 | 0.0 | 0.00 | 0.00 | 0.00 | 97 | 1023.1 |
| 20260903105101 | 67 | 306 | 0.0 | 1.0 | 0.00 | 0.00 | 0.00 | 97 | 1022.7 |
| 20260903104556 | 67 | 10 | 2.0 | 2.0 | 0.00 | 0.00 | 0.00 | 97 | 1022.9 |
| 20260903104051 | 67 | 3 | 0.0 | 1.0 | 0.00 | 0.00 | 0.00 | 97 | 1023.0 |
| 20260903103547 | 67 | 352 | 0.0 | 1.0 | 0.00 | 0.00 | 0.00 | 97 | 1022.6 |
| 20260903103043 | 67 | 0 | 0.0 | 0.0 | 0.00 | 0.00 | 0.00 | 97 | 1022.8 |
| 20260903102539 | 67 | 0 | 0.0 | 0.0 | 0.00 | 0.00 | 0.00 | 97 | 1022.6 |
| 20260903102037 | 67 | 22 | 0.0 | 1.0 | 0.00 | 0.00 | 0.00 | 97 | 1022.6 |
| 20260903101531 | 67 | 22 | 0.0 | 0.0 | 0.00 | 0.00 | 0.00 | 97 | 1022.7 |
| 20260903101022 | 67 | 22 | 0.0 | 0.0 | 0.00 | 0.00 | 0.00 | 97 | 1022.6 |
| 20260903100517 | 67 | 22 | 0.0 | 0.0 | 0.00 | 0.00 | 0.00 | 97 | 1022.7 |
| 20260903100015 | 67 | 22 | 0.0 | 0.0 | 0.00 | 0.00 | 0.00 | 97 | 1022.6 |
| 20260903095514 | 67 | 22 | 0.0 | 0.0 | 0.00 | 0.00 | 0.00 | 97 | 1022.7 |
| 20260903095009 | 67 | 22 | 0.0 | 0.0 | 0.00 | 0.00 | 0.00 | 97 | 1022.5 |
| 20260903094508 | 67 | 22 | 0.0 | 0.0 | 0.00 | 0.00 | 0.00 | 97 | 1022.7 |
| 20260903094004 | 67 | 309 | 0.0 | 0.0 | 0.00 | 0.00 | 0.00 | 97 | 1022.7 |
| 20260903093504 | 67 | 309 | 0.0 | 0.0 | 0.00 | 0.00 | 0.00 | 97 | 1022.6 |
| 20260903093000 | 67 | 309 | 0.0 | 0.0 | 0.00 | 0.00 | 0.00 | 97 | 1022.5 |
| 20260903092459 | 67 | 309 | 0.0 | 0.0 | 0.00 | 0.00 | 0.00 | 97 | 1022.5 |
| 20260903091959 | 67 | 309 | 0.0 | 0.0 | 0.00 | 0.00 | 0.00 | 97 | 1022.6 |
| 20260903091457 | 67 | 309 | 0.0 | 0.0 | 0.00 | 0.00 | 0.00 | 97 | 1022.6 |
| 20260903090952 | 67 | 309 | 0.0 | 0.0 | 0.00 | 0.00 | 0.00 | 97 | 1022.5 |
| 20260903090448 | 67 | 322 | 0.0 | 0.0 | 0.00 | 0.00 | 0.00 | 97 | 1022.3 |
| 20260903085946 | 67 | 322 | 0.0 | 0.0 | 0.00 | 0.00 | 0.00 | 97 | 1022.3 |
| 20260903085445 | 67 | 309 | 0.0 | 0.0 | 0.00 | 0.00 | 0.00 | 97 | 1022.6 |
| 20260903084940 | 67 | 309 | 0.0 | 0.0 | 0.00 | 0.00 | 0.00 | 97 | 1022.5 |
| 20260903084438 | 67 | 309 | 0.0 | 0.0 | 0.00 | 0.00 | 0.00 | 97 | 1022.5 |
| 20260903083933 | 67 | 309 | 0.0 | 0.0 | 0.00 | 0.00 | 0.00 | 97 | 1022.3 |
| 20260903083430 | 67 | 269 | 0.0 | 0.0 | 0.00 | 0.00 | 0.00 | 97 | 1022.3 |
| 20260903082929 | 67 | 269 | 0.0 | 0.0 | 0.00 | 0.00 | 0.00 | 97 | 1022.5 |
| 20260903082424 | 67 | 269 | 0.0 | 0.0 | 0.00 | 0.00 | 0.00 | 97 | 1022.5 |
| 20260903081919 | 67 | 269 | 0.0 | 0.0 | 0.00 | 0.00 | 0.00 | 97 | 1022.3 |
| 20260903081414 | 67 | 269 | 0.0 | 0.0 | 0.00 | 0.00 | 0.00 | 97 | 1022.5 |
| 20260903080910 | 67 | 269 | 0.0 | 0.0 | 0.00 | 0.00 | 0.00 | 97 | 1022.3 |
| 20260903080407 | 67 | 269 | 0.0 | 0.0 | 0.02 | 0.00 | 0.00 | 97 | 1022.6 |
| 20260903075901 | 67 | 269 | 0.0 | 0.0 | 0.02 | 0.00 | 0.00 | 97 | 1022.5 |
| 20260903075357 | 67 | 269 | 0.0 | 0.0 | 0.00 | 0.00 | 0.00 | 97 | 1022.3 |
| 20260903074857 | 67 | 269 | 0.0 | 0.0 | 0.00 | 0.00 | 0.00 | 97 | 1022.3 |
| 20260903074351 | 67 | 269 | 0.0 | 0.0 | 0.00 | 0.00 | 0.00 | 97 | 1022.6 |
| 20260903073847 | 67 | 269 | 0.0 | 0.0 | 0.00 | 0.00 | 0.00 | 97 | 1022.2 |
| 20260903073341 | 67 | 269 | 0.0 | 0.0 | 0.00 | 0.00 | 0.00 | 97 | 1022.3 |
| 20260903072838 | 67 | 269 | 0.0 | 0.0 | 0.00 | 0.00 | 0.00 | 97 | 1022.5 |
| 20260903072333 | 67 | 322 | 0.0 | 0.0 | 0.00 | 0.00 | 0.00 | 97 | 1022.5 |
| 20260903071830 | 67 | 322 | 0.0 | 0.0 | 0.00 | 0.00 | 0.00 | 97 | 1022.2 |
| 20260903071326 | 67 | 322 | 0.0 | 0.0 | 0.00 | 0.00 | 0.00 | 97 | 1022.2 |
| 20260903070820 | 68 | 322 | 0.0 | 0.0 | 0.00 | 0.00 | 0.00 | 97 | 1022.2 |
| 20260903070316 | 67 | 322 | 0.0 | 0.0 | 0.00 | 0.00 | 0.00 | 97 | 1022.1 |
| 20260903065811 | 68 | 49 | 0.0 | 0.0 | 0.00 | 0.00 | 0.00 | 97 | 1022.3 |
| 20260903065310 | 68 | 227 | 0.0 | 0.0 | 0.00 | 0.00 | 0.00 | 97 | 1022.2 |
| 20260903064809 | 68 | 309 | 0.0 | 0.0 | 0.00 | 0.00 | 0.00 | 97 | 1022.3 |
| 20260903064305 | 68 | 309 | 0.0 | 0.0 | 0.00 | 0.00 | 0.00 | 97 | 1022.3 |
| 20260903063801 | 68 | 309 | 0.0 | 0.0 | 0.00 | 0.00 | 0.00 | 97 | 1022.3 |
| 20260903063255 | 68 | 309 | 0.0 | 0.0 | 0.00 | 0.00 | 0.00 | 97 | 1022.2 |
| 20260903062751 | 68 | 224 | 0.0 | 0.0 | 0.00 | 0.00 | 0.00 | 97 | 1021.9 |
| 20260903062250 | 68 | 315 | 0.0 | 0.0 | 0.00 | 0.00 | 0.00 | 97 | 1022.0 |
| 20260903061747 | 68 | 315 | 0.0 | 0.0 | 0.00 | 0.00 | 0.00 | 97 | 1022.3 |
| 20260903061245 | 68 | 326 | 0.0 | 1.0 | 0.00 | 0.00 | 0.00 | 97 | 1022.3 |
| 20260903060741 | 68 | 296 | 0.0 | 0.0 | 0.00 | 0.00 | 0.00 | 97 | 1022.3 |
| 20260903060235 | 68 | 235 | 0.0 | 0.0 | 0.00 | 0.00 | 0.00 | 97 | 1022.5 |
| 20260903055732 | 68 | 235 | 0.0 | 0.0 | 0.00 | 0.00 | 0.00 | 97 | 1022.3 |
| 20260903055231 | 68 | 293 | 0.0 | 0.0 | 0.00 | 0.00 | 0.00 | 97 | 1022.5 |
| 20260903054726 | 68 | 293 | 0.0 | 0.0 | 0.00 | 0.00 | 0.00 | 97 | 1022.7 |
| 20260903054221 | 68 | 293 | 0.0 | 0.0 | 0.00 | 0.00 | 0.00 | 97 | 1022.6 |
| 20260903053718 | 68 | 322 | 0.0 | 0.0 | 0.00 | 0.00 | 0.00 | 97 | 1022.5 |
| 20260903053213 | 68 | 322 | 0.0 | 0.0 | 0.00 | 0.00 | 0.00 | 97 | 1022.6 |
| 20260903052709 | 68 | 322 | 0.0 | 0.0 | 0.00 | 0.00 | 0.00 | 97 | 1022.5 |
| 20260903052204 | 68 | 269 | 0.0 | 0.0 | 0.00 | 0.00 | 0.00 | 97 | 1022.7 |
| 20260903051659 | 68 | 310 | 0.0 | 0.0 | 0.00 | 0.00 | 0.00 | 97 | 1022.5 |
| 20260903051154 | 68 | 336 | 0.0 | 0.0 | 0.00 | 0.00 | 0.00 | 97 | 1022.2 |
| 20260903050650 | 68 | 309 | 0.0 | 0.0 | 0.00 | 0.00 | 0.00 | 97 | 1022.2 |
| 20260903050143 | 68 | 309 | 0.0 | 0.0 | 0.00 | 0.00 | 0.00 | 97 | 1022.2 |
| 20260903045644 | 69 | 309 | 0.0 | 0.0 | 0.00 | 0.00 | 0.00 | 97 | 1022.0 |
| 20260903045140 | 69 | 22 | 0.0 | 0.0 | 0.00 | 0.00 | 0.00 | 97 | 1022.2 |
| 20260903044636 | 69 | 322 | 0.0 | 0.0 | 0.00 | 0.00 | 0.00 | 97 | 1022.0 |
| 20260903044131 | 69 | 318 | 1.0 | 1.0 | 0.00 | 0.00 | 0.00 | 97 | 1022.3 |
| 20260903043628 | 69 | 304 | 0.0 | 0.0 | 0.00 | 0.00 | 0.00 | 97 | 1022.1 |
| 20260903043126 | 69 | 304 | 0.0 | 0.0 | 0.00 | 0.00 | 0.00 | 97 | 1021.9 |
| 20260903042621 | 69 | 269 | 0.0 | 0.0 | 0.00 | 0.00 | 0.00 | 97 | 1022.3 |
| 20260903042116 | 69 | 315 | 0.0 | 0.0 | 0.00 | 0.00 | 0.00 | 97 | 1022.3 |
| 20260903041613 | 69 | 315 | 0.0 | 0.0 | 0.00 | 0.00 | 0.00 | 97 | 1022.6 |
| 20260903041108 | 69 | 309 | 0.0 | 0.0 | 0.00 | 0.00 | 0.00 | 97 | 1022.7 |
| 20260903040607 | 69 | 309 | 0.0 | 0.0 | 0.00 | 0.00 | 0.00 | 97 | 1022.3 |
| 20260903040104 | 69 | 309 | 0.0 | 1.0 | 0.00 | 0.00 | 0.00 | 97 | 1022.5 |
| 20260903035558 | 69 | 304 | 0.0 | 0.0 | 0.00 | 0.00 | 0.00 | 97 | 1022.5 |
| 20260903035054 | 70 | 322 | 0.0 | 0.0 | 0.00 | 0.00 | 0.00 | 97 | 1022.1 |
| 20260903034549 | 70 | 269 | 0.0 | 0.0 | 0.00 | 0.00 | 0.00 | 97 | 1022.6 |
| 20260903034044 | 70 | 244 | 1.0 | 1.0 | 0.00 | 0.00 | 0.00 | 97 | 1022.6 |
| 20260903033539 | 70 | 60 | 0.0 | 0.0 | 0.00 | 0.00 | 0.00 | 97 | 1022.7 |
| 20260903033034 | 69 | 343 | 0.0 | 0.0 | 0.00 | 0.00 | 0.00 | 97 | 1022.7 |
| 20260903032529 | 70 | 309 | 0.0 | 0.0 | 0.00 | 0.00 | 0.00 | 97 | 1022.5 |
| 20260903032025 | 70 | 315 | 0.0 | 1.0 | 0.00 | 0.00 | 0.00 | 97 | 1022.6 |
| 20260903031524 | 70 | 322 | 0.0 | 0.0 | 0.00 | 0.00 | 0.00 | 97 | 1022.6 |
| 20260903031020 | 70 | 269 | 0.0 | 0.0 | 0.00 | 0.00 | 0.00 | 97 | 1022.9 |
| 20260903030515 | 71 | 89 | 0.0 | 0.0 | 0.00 | 0.00 | 0.00 | 97 | 1022.6 |
| 20260903030011 | 71 | 304 | 0.0 | 0.0 | 0.00 | 0.00 | 0.00 | 96 | 1022.8 |
| 20260903025507 | 71 | 329 | 0.0 | 2.0 | 0.00 | 0.00 | 0.00 | 96 | 1022.7 |
| 20260903025002 | 71 | 333 | 2.0 | 3.0 | 0.00 | 0.00 | 0.00 | 96 | 1022.6 |
| 20260903024501 | 71 | 242 | 0.0 | 0.0 | 0.00 | 0.00 | 0.00 | 96 | 1022.3 |
| 20260903023955 | 71 | 242 | 0.0 | 1.0 | 0.00 | 0.00 | 0.00 | 96 | 1022.6 |
| 20260903023452 | 71 | 62 | 0.0 | 0.0 | 0.00 | 0.00 | 0.00 | 96 | 1022.7 |
| 20260903022947 | 71 | 309 | 0.0 | 0.0 | 0.00 | 0.00 | 0.00 | 96 | 1022.6 |
| 20260903022446 | 71 | 322 | 0.0 | 0.0 | 0.00 | 0.00 | 0.00 | 96 | 1022.7 |
| 20260903021944 | 71 | 322 | 0.0 | 0.0 | 0.00 | 0.00 | 0.00 | 96 | 1022.5 |
| 20260903021440 | 71 | 322 | 0.0 | 0.0 | 0.00 | 0.00 | 0.00 | 96 | 1022.8 |
| 20260903020935 | 72 | 342 | 0.0 | 2.0 | 0.00 | 0.00 | 0.00 | 96 | 1022.7 |
| 20260903020430 | 72 | 242 | 0.0 | 0.0 | 0.00 | 0.00 | 0.00 | 96 | 1022.6 |
| 20260903015925 | 72 | 229 | 1.0 | 1.0 | 0.00 | 0.00 | 0.00 | 96 | 1022.7 |
| 20260903015421 | 72 | 44 | 0.0 | 0.0 | 0.00 | 0.00 | 0.00 | 95 | 1022.8 |
| 20260903014915 | 72 | 44 | 0.0 | 0.0 | 0.00 | 0.00 | 0.00 | 95 | 1023.0 |
| 20260903014409 | 72 | 44 | 0.0 | 0.0 | 0.00 | 0.00 | 0.00 | 95 | 1022.8 |
| 20260903013905 | 73 | 325 | 1.0 | 2.0 | 0.00 | 0.00 | 0.00 | 95 | 1022.6 |
| 20260903013404 | 73 | 309 | 0.0 | 0.0 | 0.00 | 0.00 | 0.00 | 94 | 1022.6 |
| 20260903012903 | 73 | 209 | 0.0 | 1.0 | 0.00 | 0.00 | 0.00 | 94 | 1022.6 |
| 20260903012403 | 73 | 297 | 0.0 | 0.0 | 0.00 | 0.00 | 0.00 | 94 | 1022.9 |
| 20260903011901 | 73 | 321 | 0.0 | 0.0 | 0.00 | 0.00 | 0.00 | 93 | 1022.7 |
| 20260903011356 | 73 | 242 | 0.0 | 0.0 | 0.00 | 0.00 | 0.00 | 93 | 1022.7 |
| 20260903010852 | 73 | 242 | 0.0 | 1.0 | 0.00 | 0.00 | 0.00 | 93 | 1022.7 |
| 20260903010347 | 74 | 25 | 0.0 | 0.0 | 0.00 | 0.00 | 0.00 | 93 | 1022.3 |
| 20260903005845 | 74 | 32 | 0.0 | 0.0 | 0.00 | 0.00 | 0.00 | 93 | 1022.6 |
| 20260903005340 | 74 | 76 | 0.0 | 0.0 | 0.00 | 0.00 | 0.00 | 93 | 1022.8 |
| 20260903004837 | 74 | 230 | 0.0 | 0.0 | 0.00 | 0.00 | 0.00 | 93 | 1022.0 |
| 20260903004332 | 74 | 245 | 0.0 | 0.0 | 0.00 | 0.00 | 0.00 | 93 | 1022.2 |
| 20260903003827 | 75 | 217 | 0.0 | 0.0 | 0.00 | 0.00 | 0.00 | 92 | 1022.5 |
| 20260903003322 | 75 | 212 | 0.0 | 0.0 | 0.00 | 0.00 | 0.00 | 92 | 1022.2 |
| 20260903002821 | 75 | 212 | 0.0 | 0.0 | 0.00 | 0.00 | 0.00 | 91 | 1022.3 |
| 20260903002322 | 75 | 322 | 0.0 | 0.0 | 0.00 | 0.00 | 0.00 | 89 | 1022.2 |
| 20260903001816 | 75 | 322 | 0.0 | 0.0 | 0.00 | 0.00 | 0.00 | 89 | 1022.2 |
| 20260903001312 | 76 | 347 | 1.0 | 2.0 | 0.00 | 0.00 | 0.00 | 89 | 1022.1 |
| 20260903000812 | 76 | 322 | 0.0 | 0.0 | 0.00 | 0.00 | 0.00 | 89 | 1021.9 |
| 20260903000307 | 77 | 333 | 0.0 | 0.0 | 0.00 | 0.00 | 0.00 | 87 | 1022.0 |
| 20260902235804 | 78 | 333 | 0.0 | 0.0 | 0.00 | 0.00 | 0.00 | 85 | 1022.0 |
| 20260902235300 | 78 | 37 | 0.0 | 0.0 | 0.00 | 0.00 | 0.00 | 84 | 1021.9 |
| 20260902234754 | 79 | 337 | 1.0 | 1.0 | 0.00 | 0.00 | 0.00 | 83 | 1021.8 |
| 20260902234253 | 80 | 309 | 0.0 | 0.0 | 0.00 | 0.00 | 0.00 | 83 | 1021.7 |
| 20260902233747 | 80 | 229 | 0.0 | 1.0 | 0.00 | 0.00 | 0.00 | 81 | 1021.8 |
| 20260902233242 | 80 | 236 | 0.0 | 2.0 | 0.00 | 0.00 | 0.00 | 81 | 1021.7 |
| 20260902232740 | 80 | 62 | 0.0 | 1.0 | 0.00 | 0.00 | 0.00 | 77 | 1021.9 |
| 20260902232235 | 81 | 312 | 2.0 | 2.0 | 0.00 | 0.00 | 0.00 | 78 | 1021.9 |
| 20260902231734 | 82 | 258 | 1.0 | 1.0 | 0.00 | 0.00 | 0.00 | 76 | 1021.9 |
| 20260902231230 | 83 | 334 | 3.0 | 3.0 | 0.00 | 0.00 | 0.00 | 74 | 1022.1 |
| 20260902230724 | 83 | 277 | 1.0 | 1.0 | 0.00 | 0.00 | 0.00 | 73 | 1022.1 |
| 20260902230223 | 84 | 333 | 0.0 | 2.0 | 0.00 | 0.00 | 0.00 | 71 | 1022.0 |
| 20260902225719 | 85 | 304 | 0.0 | 1.0 | 0.00 | 0.00 | 0.00 | 67 | 1022.0 |
| 20260902225219 | 86 | 335 | 1.0 | 2.0 | 0.00 | 0.00 | 0.00 | 68 | 1021.8 |
| 20260902224717 | 87 | 309 | 0.0 | 1.0 | 0.00 | 0.00 | 0.00 | 62 | 1021.8 |
| 20260902224213 | 87 | 258 | 1.0 | 4.0 | 0.00 | 0.00 | 0.00 | 57 | 1021.6 |
| 20260902223708 | 89 | 278 | 3.0 | 3.0 | 0.00 | 0.00 | 0.00 | 54 | 1021.7 |
| 20260902223208 | 90 | 245 | 2.0 | 3.0 | 0.00 | 0.00 | 0.00 | 54 | 1021.7 |
| 20260902222707 | 89 | 291 | 0.0 | 3.0 | 0.00 | 0.00 | 0.00 | 53 | 1021.7 |
| 20260902222201 | 89 | 237 | 2.0 | 4.0 | 0.00 | 0.00 | 0.00 | 53 | 1021.8 |
| 20260902221655 | 89 | 251 | 2.0 | 3.0 | 0.00 | 0.00 | 0.00 | 52 | 1021.7 |
| 20260902221155 | 90 | 248 | 2.0 | 4.0 | 0.00 | 0.00 | 0.00 | 52 | 1021.8 |
| 20260902220650 | 89 | 272 | 1.0 | 3.0 | 0.00 | 0.00 | 0.00 | 52 | 1021.8 |
| 20260902220145 | 89 | 276 | 4.0 | 6.0 | 0.00 | 0.00 | 0.00 | 51 | 1021.8 |
| 20260902215641 | 90 | 245 | 3.0 | 4.0 | 0.00 | 0.00 | 0.00 | 51 | 1021.9 |
| 20260902215136 | 91 | 261 | 1.0 | 3.0 | 0.00 | 0.00 | 0.00 | 49 | 1021.8 |
| 20260902214631 | 90 | 260 | 3.0 | 4.0 | 0.00 | 0.00 | 0.00 | 52 | 1021.9 |
| 20260902214130 | 90 | 262 | 3.0 | 4.0 | 0.00 | 0.00 | 0.00 | 52 | 1021.8 |
| 20260902213626 | 90 | 236 | 3.0 | 4.0 | 0.00 | 0.00 | 0.00 | 51 | 1021.8 |
| 20260902213125 | 90 | 250 | 1.0 | 4.0 | 0.00 | 0.00 | 0.00 | 51 | 1021.7 |
| 20260902212621 | 91 | 221 | 4.0 | 4.0 | 0.00 | 0.00 | 0.00 | 50 | 1022.0 |
| 20260902212117 | 91 | 227 | 3.0 | 4.0 | 0.00 | 0.00 | 0.00 | 48 | 1022.0 |
| 20260902211613 | 89 | 283 | 1.0 | 1.0 | 0.00 | 0.00 | 0.00 | 52 | 1021.9 |
| 20260902211108 | 89 | 233 | 3.0 | 7.0 | 0.00 | 0.00 | 0.00 | 50 | 1021.8 |
| 20260902210607 | 91 | 244 | 6.0 | 7.0 | 0.00 | 0.00 | 0.00 | 49 | 1021.8 |
| 20260902205601 | 89 | 233 | 2.0 | 3.0 | 0.00 | 0.00 | 0.00 | 52 | 1022.1 |
| 20260902205056 | 89 | 228 | 4.0 | 5.0 | 0.00 | 0.00 | 0.00 | 52 | 1022.1 |
| 20260902204551 | 89 | 250 | 5.0 | 8.0 | 0.00 | 0.00 | 0.00 | 53 | 1022.2 |
| 20260902204046 | 90 | 246 | 5.0 | 7.0 | 0.00 | 0.00 | 0.00 | 53 | 1022.0 |
| 20260902203541 | 90 | 239 | 4.0 | 7.0 | 0.00 | 0.00 | 0.00 | 52 | 1022.2 |
| 20260902203040 | 89 | 237 | 2.0 | 3.0 | 0.00 | 0.00 | 0.00 | 53 | 1022.2 |
| 20260902202536 | 89 | 255 | 2.0 | 6.0 | 0.00 | 0.00 | 0.00 | 52 | 1022.2 |
| 20260902202032 | 89 | 235 | 3.0 | 4.0 | 0.00 | 0.00 | 0.00 | 53 | 1022.1 |
| 20260902201528 | 91 | 258 | 5.0 | 6.0 | 0.00 | 0.00 | 0.00 | 50 | 1022.2 |
| 20260902201027 | 90 | 247 | 2.0 | 5.0 | 0.00 | 0.00 | 0.00 | 55 | 1022.2 |
| 20260902200522 | 89 | 326 | 2.0 | 3.0 | 0.00 | 0.00 | 0.00 | 54 | 1022.3 |
| 20260902200019 | 89 | 239 | 3.0 | 5.0 | 0.00 | 0.00 | 0.00 | 54 | 1022.3 |
| 20260902195514 | 89 | 222 | 5.0 | 7.0 | 0.00 | 0.00 | 0.00 | 52 | 1022.1 |
| 20260902195013 | 88 | 279 | 2.0 | 4.0 | 0.00 | 0.00 | 0.00 | 53 | 1022.1 |
| 20260902194513 | 89 | 218 | 5.0 | 5.0 | 0.00 | 0.00 | 0.00 | 52 | 1022.2 |
| 20260902194008 | 89 | 242 | 6.0 | 7.0 | 0.00 | 0.00 | 0.00 | 52 | 1022.2 |
| 20260902193504 | 90 | 239 | 8.0 | 8.0 | 0.00 | 0.00 | 0.00 | 51 | 1022.5 |
| 20260902193004 | 90 | 231 | 3.0 | 7.0 | 0.00 | 0.00 | 0.00 | 52 | 1022.6 |
| 20260902192502 | 89 | 316 | 2.0 | 3.0 | 0.00 | 0.00 | 0.00 | 54 | 1022.6 |
| 20260902192001 | 89 | 286 | 5.0 | 12.0 | 0.00 | 0.00 | 0.00 | 53 | 1022.8 |
| 20260902191456 | 90 | 229 | 5.0 | 6.0 | 0.00 | 0.00 | 0.00 | 52 | 1022.7 |
| 20260902190951 | 89 | 230 | 5.0 | 9.0 | 0.00 | 0.00 | 0.00 | 53 | 1022.9 |